Location: Pl�tzky
(52.0521°N, 11.8020°E)
Time: 04:05:51
(UTC+00:00)

USA 229 - Pass Details

Date: 29 February 2020
Orbit: 986 x 1226 km, 63.4° (Epoch: 26 March)

Event Time Altitude Azimuth Distance (km) Brightness Sun altitude
Rises 21:23:49 0° 304° (NW) 3,863 7.5 -39.0°
Reaches altitude 10° 21:26:37 10° 312° (NW) 2,942 6.7 -39.3°
Enters shadow 21:32:01 38° 359° (N) 1,651 4.9 -39.8°
